• In Portugal
  • List of Countries
  • For 7 days
  • Water Temperature
  • Satellite Maps
  • Weather Map
  • Weather Widgets
  • user-avatar
    Login

    Hourly Weather Burdur

    Today, 24 February, Saturday

    Time Temperature Precipitation Wind Pressure Humidity
    00:00 +5°C° 0 mm 0 mps 671 mmHg 84%
    01:00 +5°C° 0 mm 0 mps 670 mmHg 85%
    02:00 +4°C° 0 mm 0 mps 670 mmHg 85%
    03:00 +5°C° 0 mm 1 mps 670 mmHg 85%
    04:00 +5°C° 0 mm 1 mps 670 mmHg 85%
    05:00 +5°C° 0 mm 1 mps 670 mmHg 85%
    06:00 +6°C° 0 mm 1 mps 670 mmHg 81%
    07:00 +6°C° 0 mm 1 mps 671 mmHg 77%
    08:00 +7°C° 0 mm 1 mps 671 mmHg 73%
    09:00 +9°C° 0 mm 1 mps 671 mmHg 67%
    10:00 +9°C° 0 mm 2 mps 671 mmHg 61%
    11:00 +10°C° 0 mm 3 mps 671 mmHg 54%
    12:00 +11°C° 0 mm 3 mps 671 mmHg 53%
    13:00 +11°C° 0 mm 3 mps 671 mmHg 51%
    14:00 +12°C° 0 mm 4 mps 670 mmHg 49%
    15:00 +11°C° 0.2 mm 4 mps 670 mmHg 56%
    16:00 +10°C° 0.2 mm 4 mps 669 mmHg 63%
    17:00 +8°C° 0.2 mm 4 mps 668 mmHg 69%
    18:00 +7°C° 0.9 mm 4 mps 668 mmHg 75%
    19:00 +7°C° 0.9 mm 4 mps 668 mmHg 81%
    20:00 +6°C° 0.9 mm 4 mps 667 mmHg 87%
    21:00 +6°C° 2.6 mm 4 mps 667 mmHg 86%
    22:00 +5°C° 2.6 mm 3 mps 667 mmHg 86%
    23:00 +5°C° 2.6 mm 3 mps 667 mmHg 86%

    Tomorrow, 25 February, Sunday

    Time Temperature Precipitation Wind Pressure Humidity
    00:00 +4°C° 0.5 mm 3 mps 667 mmHg 85%
    01:00 +5°C° 0.5 mm 2 mps 667 mmHg 85%
    02:00 +4°C° 0.5 mm 2 mps 668 mmHg 85%
    03:00 +4°C° 0.1 mm 2 mps 667 mmHg 84%
    04:00 +4°C° 0.1 mm 2 mps 667 mmHg 83%
    05:00 +4°C° 0.1 mm 2 mps 667 mmHg 82%
    06:00 +4°C° 0.3 mm 2 mps 668 mmHg 80%
    07:00 +4°C° 0.3 mm 2 mps 668 mmHg 78%
    08:00 +5°C° 0.3 mm 2 mps 668 mmHg 75%
    09:00 +5°C° 0.3 mm 2 mps 669 mmHg 74%
    10:00 +6°C° 0.3 mm 2 mps 669 mmHg 73%
    11:00 +7°C° 0.3 mm 2 mps 669 mmHg 72%
    12:00 +7°C° 0.1 mm 2 mps 669 mmHg 70%
    13:00 +7°C° 0.1 mm 2 mps 669 mmHg 69%
    14:00 +8°C° 0.1 mm 2 mps 669 mmHg 67%
    15:00 +9°C° 0.1 mm 1 mps 669 mmHg 67%
    16:00 +9°C° 0.1 mm 1 mps 669 mmHg 67%
    17:00 +9°C° 0.1 mm 1 mps 669 mmHg 67%
    18:00 +8°C° 0 mm 1 mps 669 mmHg 71%
    19:00 +7°C° 0 mm 1 mps 669 mmHg 75%
    20:00 +6°C° 0 mm 1 mps 669 mmHg 80%
    21:00 +6°C° 0 mm 1 mps 669 mmHg 80%
    22:00 +5°C° 0 mm 1 mps 670 mmHg 81%
    23:00 +5°C° 0 mm 1 mps 670 mmHg 82%

    Day after tomorrow, 26 February, Monday

    Time Temperature Precipitation Wind Pressure Humidity
    00:00 +5°C° 0 mm 1 mps 670 mmHg 82%
    01:00 +5°C° 0 mm 1 mps 670 mmHg 82%
    02:00 +5°C° 0 mm 1 mps 670 mmHg 82%
    03:00 +5°C° 0 mm 1 mps 669 mmHg 82%
    04:00 +4°C° 0 mm 1 mps 669 mmHg 82%
    05:00 +4°C° 0 mm 1 mps 668 mmHg 83%
    06:00 +5°C° 0 mm 1 mps 669 mmHg 80%
    07:00 +5°C° 0 mm 1 mps 669 mmHg 78%
    08:00 +6°C° 0 mm 1 mps 669 mmHg 76%
    09:00 +6°C° 0 mm 2 mps 669 mmHg 71%
    10:00 +7°C° 0 mm 3 mps 669 mmHg 67%
    11:00 +9°C° 0 mm 3 mps 669 mmHg 62%
    12:00 +8°C° 0 mm 4 mps 668 mmHg 61%
    13:00 +8°C° 0 mm 4 mps 668 mmHg 59%
    14:00 +10°C° 0 mm 4 mps 667 mmHg 57%
    15:00 +8°C° 0 mm 4 mps 667 mmHg 61%
    16:00 +8°C° 0 mm 4 mps 666 mmHg 65%
    17:00 +7°C° 0 mm 4 mps 666 mmHg 69%
    18:00 +6°C° 0.6 mm 4 mps 666 mmHg 75%
    19:00 +7°C° 0.6 mm 3 mps 666 mmHg 80%
    20:00 +5°C° 0.6 mm 3 mps 666 mmHg 86%
    21:00 +5°C° 1.4 mm 3 mps 666 mmHg 86%
    22:00 +5°C° 1.4 mm 3 mps 666 mmHg 87%
    23:00 +5°C° 1.4 mm 3 mps 666 mmHg 88%

    27 February, Tuesday

    Time Temperature Precipitation Wind Pressure Humidity
    00:00 +5°C° 0.2 mm 2 mps 666 mmHg 87%
    01:00 +5°C° 0.2 mm 2 mps 666 mmHg 87%
    02:00 +4°C° 0.2 mm 2 mps 666 mmHg 86%
    03:00 +4°C° 0.1 mm 2 mps 667 mmHg 85%
    04:00 +4°C° 0.1 mm 2 mps 667 mmHg 84%
    05:00 +4°C° 0.1 mm 2 mps 667 mmHg 84%
    06:00 +4°C° 0 mm 2 mps 668 mmHg 82%
    07:00 +4°C° 0 mm 3 mps 668 mmHg 80%
    08:00 +4°C° 0 mm 3 mps 669 mmHg 78%
    09:00 +5°C° 0 mm 3 mps 670 mmHg 70%
    10:00 +7°C° 0 mm 3 mps 670 mmHg 62%
    11:00 +8°C° 0 mm 3 mps 671 mmHg 55%
    12:00 +9°C° 0 mm 3 mps 671 mmHg 51%
    13:00 +10°C° 0 mm 3 mps 671 mmHg 47%
    14:00 +10°C° 0 mm 3 mps 671 mmHg 43%
    15:00 +10°C° 0 mm 3 mps 671 mmHg 45%
    16:00 +10°C° 0 mm 3 mps 671 mmHg 48%
    17:00 +10°C° 0 mm 2 mps 672 mmHg 50%
    18:00 +8°C° 0 mm 2 mps 672 mmHg 58%
    19:00 +8°C° 0 mm 1 mps 672 mmHg 66%
    20:00 +7°C° 0 mm 1 mps 673 mmHg 73%
    21:00 +6°C° 0 mm 1 mps 673 mmHg 76%
    22:00 +6°C° 0 mm 1 mps 673 mmHg 78%
    23:00 +6°C° 0 mm 1 mps 673 mmHg 80%

    28 February, Wednesday

    Time Temperature Precipitation Wind Pressure Humidity
    00:00 +6°C° 0 mm 1 mps 673 mmHg 82%
    01:00 +5°C° 0 mm 1 mps 673 mmHg 84%
    02:00 +5°C° 0 mm 1 mps 673 mmHg 86%
    03:00 +5°C° 0 mm 1 mps 673 mmHg 87%
    04:00 +5°C° 0 mm 1 mps 673 mmHg 88%
    05:00 +4°C° 0 mm 2 mps 673 mmHg 88%
    06:00 +5°C° 0 mm 2 mps 674 mmHg 86%
    07:00 +5°C° 0 mm 2 mps 674 mmHg 85%
    08:00 +6°C° 0 mm 2 mps 674 mmHg 83%
    09:00 +7°C° 0 mm 3 mps 674 mmHg 77%
    10:00 +8°C° 0 mm 3 mps 674 mmHg 72%
    11:00 +9°C° 0 mm 3 mps 675 mmHg 67%
    12:00 +9°C° 0 mm 3 mps 674 mmHg 66%
    13:00 +9°C° 0 mm 3 mps 674 mmHg 65%
    14:00 +10°C° 0 mm 3 mps 674 mmHg 64%
    15:00 +9°C° 0 mm 3 mps 674 mmHg 66%
    16:00 +9°C° 0 mm 3 mps 674 mmHg 67%
    17:00 +9°C° 0 mm 3 mps 674 mmHg 69%
    18:00 +8°C° 0 mm 2 mps 674 mmHg 75%
    19:00 +7°C° 0 mm 2 mps 674 mmHg 80%
    20:00 +6°C° 0 mm 2 mps 675 mmHg 86%
    21:00 +7°C° 0 mm 1 mps 675 mmHg 87%
    22:00 +6°C° 0 mm 1 mps 675 mmHg 88%
    23:00 +6°C° 0 mm 1 mps 675 mmHg 89%

    1 March, Thursday

    Time Temperature Precipitation Wind Pressure Humidity
    00:00 +6°C° 0 mm 1 mps 675 mmHg 89%
    01:00 +6°C° 0 mm 1 mps 675 mmHg 88%
    02:00 +6°C° 0 mm 1 mps 675 mmHg 88%
    03:00 +6°C° 0 mm 1 mps 675 mmHg 88%
    04:00 +5°C° 0 mm 1 mps 676 mmHg 88%
    05:00 +5°C° 0 mm 1 mps 676 mmHg 87%
    06:00 +6°C° 0 mm 1 mps 676 mmHg 83%
    07:00 +7°C° 0 mm 1 mps 677 mmHg 79%
    08:00 +8°C° 0 mm 1 mps 678 mmHg 74%
    09:00 +10°C° 0 mm 1 mps 678 mmHg 68%
    10:00 +11°C° 0 mm 1 mps 678 mmHg 62%
    11:00 +13°C° 0 mm 1 mps 678 mmHg 55%
    12:00 +14°C° 0 mm 1 mps 678 mmHg 53%
    13:00 +14°C° 0 mm 1 mps 678 mmHg 50%
    14:00 +15°C° 0 mm 1 mps 678 mmHg 48%
    15:00 +15°C° 0 mm 1 mps 678 mmHg 50%
    16:00 +15°C° 0 mm 1 mps 678 mmHg 52%
    17:00 +15°C° 0 mm 1 mps 678 mmHg 53%
    18:00 +13°C° 0 mm 1 mps 678 mmHg 58%
    19:00 +12°C° 0 mm 1 mps 678 mmHg 63%
    20:00 +11°C° 0 mm 1 mps 678 mmHg 67%
    21:00 +10°C° 0 mm 1 mps 677 mmHg 69%
    22:00 +8°C° 0 mm 0 mps 677 mmHg 71%
    23:00 +8°C° 0 mm 0 mps 677 mmHg 72%
    Show more